This is the latest recevied weather packets stored in our database for station/object KF7SOJ. If no packets are shown the sender has not sent any weather packets the latest 10 day(s).
| Time | Temp. | Humidity | Pressure | Rain* | Wind** | Luminosity | Snow |
|---|---|---|---|---|---|---|---|
| 1777516630 | 8.33° C | 41% | 937.4 hPa | 0 mm | - | 0 W/m² | - |
| 1777516326 | 8.89° C | 40% | 937.4 hPa | 0 mm | - | 1 W/m² | - |
| 1777516022 | 8.89° C | 40% | 937.3 hPa | 0 mm | - | 2 W/m² | - |
| 1777515720 | 8.89° C | 39% | 937.4 hPa | 0 mm | - | 3 W/m² | - |
| 1777515416 | 9.44° C | 39% | 937.5 hPa | 0 mm | - | 5 W/m² | - |
| 1777515112 | 9.44° C | 39% | 937.3 hPa | 0 mm | - | 8 W/m² | - |
| 1777514809 | 9.44° C | 39% | 937.2 hPa | 0 mm | - | 11 W/m² | - |
| 1777514506 | 10° C | 38% | 937.1 hPa | 0 mm | - | 15 W/m² | - |
| 1777514204 | 10.56° C | 37% | 937 hPa | 0 mm | - | 19 W/m² | - |
| 1777513899 | 10.56° C | 37% | 937.2 hPa | 0 mm | - | 23 W/m² | - |
| 1777513597 | 10.56° C | 37% | 937.2 hPa | 0 mm | - | 27 W/m² | - |
| 1777512990 | 11.67° C | 34% | 937 hPa | 0 mm | - | 38 W/m² | - |
| 1777512383 | 11.67° C | 34% | 936.9 hPa | 0 mm | - | 40 W/m² | - |
| 1777512080 | 12.22° C | 31% | 936.9 hPa | 0 mm | - | 45 W/m² | - |
| 1777511778 | 12.78° C | 30% | 936.8 hPa | 0 mm | - | 77 W/m² | - |
| 1777511475 | 12.78° C | 29% | 936.8 hPa | 0 mm | - | 62 W/m² | - |
| 1777511172 | 13.33° C | 29% | 936.7 hPa | 0 mm | - | 63 W/m² | - |
| 1777510867 | 13.33° C | 28% | 936.8 hPa | 0 mm | - | 88 W/m² | - |
| 1777510564 | 13.33° C | 28% | 936.6 hPa | 0 mm | - | 128 W/m² | - |
| 1777510260 | 13.33° C | 29% | 936.7 hPa | 0 mm | - | 139 W/m² | - |
| 1777509957 | 13.89° C | 27% | 936.6 hPa | 0 mm | - | 156 W/m² | - |
| 1777509653 | 13.89° C | 28% | 936.8 hPa | 0 mm | - | 172 W/m² | - |
| 1777509349 | 13.89° C | 29% | 936.7 hPa | 0 mm | - | 188 W/m² | - |
| 1777509047 | 13.89° C | 26% | 936.6 hPa | 0 mm | - | 205 W/m² | - |
| 1777508744 | 14.44° C | 28% | 936.6 hPa | 0 mm | - | 223 W/m² | - |
* Rain latest hour (hover to see other rain measurements)
** Current wind speed in m/s (hover to see current wind gust speed)